AMC-16 (28472 NORAD) Tracking and Keplerian Element Data

This shows tracking and keplerian element data for the satellite.

Feedback or suggestion? Click here.




ElementValue
Catalog28472
NameAMC-16
Epoch Orbit6123
Epoch Day241.54160966
Epoch Year2021
RAAN104.4939
Inclination0.0636
Eccentricity0.0004538
Argument of Perigee67.3179
Mean Anonmoly148.3405
Mean Motion0.99109007
Decay Rate-2.93E-06
L11 28472U 04048A 21241.54160966 -.00000293 00000-0 00000+0 0 9990
L22 28472 0.0636 104.4939 0004538 67.3179 148.3405 0.99109007 61235



Live tracking and technical data element details for AMC-16 (NORAD 28472). AMC-16 can be tracked NOW for your location showing map with azimuth and elevation plus other details from your city location.







IsCatalogInMostPopularTable: catalog: 28472, numindb: 350
Update: records affected: 1



GetName: 28472 AMC-16

Hit Count: updated at: Thu, 22 May 2025 04:14:42 GMT